Tolar, TX

2:37 AM CST on February 08, 2016 (GMT -0600)
Granbury

Weather History for KGDJ - August, 2013

Change the Weather History Date:

Wednesday, August 7, 2013

  Actual Average (KSEP) Record (KSEP)
Temperature  
Mean Temperature 94 °F -  
Max Temperature 105 °F 92 °F 104 °F (1925)
Min Temperature 82 °F 69 °F 60 °F (1990)
Cooling Degree Days 28    
Growing Degree Days 44 (Base 50)    
Moisture  
Dew Point 64 °F    
Average Humidity 40    
Maximum Humidity 61    
Minimum Humidity 22    
Precipitation  
Precipitation 0.00 in - - ()
Sea Level Pressure  
Sea Level Pressure 29.85 in    
Wind  
Wind Speed 10 mph (SSE)    
Max Wind Speed 14 mph    
Max Gust Speed 22 mph    
Visibility 9 miles    
Events      
Averages and records for this station are not official NWS values.
T = Trace of Precipitation, MM = Missing Value Source: NWS Daily Summary

Daily Weather History Graph

Daily Weather History Graph

Search for Another Location

Airport or City:

Trip Planner

Search our weather history database for the weather conditions in past years. The results will help you decide how hot, cold, wet, or windy it might be!

Date:

Astronomy

Aug. 07, 2013 Rise Set
Actual Time 6:49 AM CDT 8:23 PM CDT
Civil Twilight 6:23 AM CDT 8:49 PM CDT
Nautical Twilight 5:51 AM CDT 9:21 PM CDT
Astronomical Twilight 5:18 AM CDT 9:54 PM CDT
Moon 7:33 AM CDT (8/7) 8:39 PM CDT (8/7)
Length of Visible Light 14h 26m
Length of Day
13h 33m
New Moon, 1% of the Moon is Illuminated
Aug 7
New Moon
Aug 14
First Quarter
Aug 20
Full
Aug 28
Last Quarter
Sep 5
New

Hourly Weather History & Observations

Time (CDT) Temp. Heat Index Dew Point Humidity Pressure Visibility Wind Dir Wind Speed Gust Speed Precip Events Conditions
12:15 AM 90.9 °F 91.6 °F 62.6 °F 39% 29.86 in 10.0 mi SSE 11.5 mph 18.4 mph N/A   Clear
12:35 AM 91.0 °F 91.9 °F 63.1 °F 39% 29.86 in 10.0 mi SSE 11.5 mph - N/A   Clear
12:55 AM 90.5 °F 91.8 °F 63.7 °F 41% 29.87 in 10.0 mi SSE 12.7 mph 18.4 mph N/A   Clear
1:15 AM 90.3 °F 91.9 °F 64.6 °F 42% 29.87 in 10.0 mi SSE 9.2 mph - N/A   Clear
1:35 AM 89.6 °F 91.8 °F 65.5 °F 45% 29.87 in 10.0 mi SE 9.2 mph 16.1 mph N/A   Clear
1:55 AM 88.7 °F 91.1 °F 66.2 °F 47% 29.86 in 10.0 mi SSE 11.5 mph 16.1 mph N/A   Clear
2:15 AM 88.2 °F 91.3 °F 67.3 °F 50% 29.86 in 10.0 mi SE 12.7 mph 17.3 mph N/A   Clear
2:35 AM 87.8 °F 91.4 °F 68.4 °F 52% 29.86 in 10.0 mi SE 10.4 mph 18.4 mph N/A   Clear
2:55 AM 87.1 °F 91.3 °F 69.1 °F 55% 29.86 in 10.0 mi SE 9.2 mph 17.3 mph N/A   Clear
3:15 AM 86.7 °F 91.4 °F 69.8 °F 57% 29.86 in 10.0 mi SE 10.4 mph 16.1 mph N/A   Clear
3:35 AM 86.0 °F 90.4 °F 69.8 °F 58% 29.85 in 10.0 mi SE 10.4 mph - N/A   Clear
3:55 AM 85.6 °F 90.1 °F 70.0 °F 59% 29.85 in 10.0 mi SSE 11.5 mph - N/A   Clear
4:15 AM 85.1 °F 89.4 °F 69.8 °F 60% 29.86 in 10.0 mi SSE 10.4 mph - N/A   Clear
4:35 AM 84.7 °F 88.8 °F 69.4 °F 60% 29.85 in 10.0 mi SSE 11.5 mph - N/A   Clear
4:55 AM 84.6 °F 88.5 °F 69.1 °F 60% 29.86 in 10.0 mi SSE 8.1 mph - N/A   Clear
5:15 AM 84.2 °F 87.6 °F 68.4 °F 59% 29.86 in 10.0 mi SSE 11.5 mph - N/A   Clear
5:35 AM 84.2 °F 87.3 °F 68.0 °F 58% 29.85 in 10.0 mi SE 6.9 mph - N/A   Clear
5:55 AM 83.5 °F 86.4 °F 67.8 °F 59% 29.86 in 10.0 mi SSE 8.1 mph - N/A   Clear
6:15 AM 83.3 °F 86.2 °F 67.5 °F 59% 29.86 in 10.0 mi SSE 6.9 mph - N/A   Clear
6:35 AM 83.3 °F 86.2 °F 67.5 °F 59% 29.87 in 10.0 mi SSE 5.8 mph - N/A   Clear
6:55 AM 82.6 °F 85.3 °F 67.6 °F 60% 29.87 in 7.0 mi SSE 3.5 mph - N/A   Clear
7:15 AM 82.6 °F 85.5 °F 67.8 °F 61% 29.87 in 7.0 mi SSE 8.1 mph - N/A   Clear
7:35 AM 82.8 °F 85.8 °F 68.0 °F 61% 29.88 in 7.0 mi SSE 6.9 mph - N/A   Scattered Clouds
7:55 AM 83.5 °F 86.4 °F 68.0 °F 59% 29.89 in 7.0 mi SSE 8.1 mph - N/A   Scattered Clouds
8:15 AM 84.2 °F 87.3 °F 68.2 °F 58% 29.89 in 7.0 mi SSE 5.8 mph - N/A   Scattered Clouds
8:35 AM 85.3 °F 88.5 °F 68.2 °F 56% 29.90 in 7.0 mi SSE 5.8 mph - N/A   Mostly Cloudy
8:55 AM 85.5 °F 88.8 °F 68.0 °F 56% 29.90 in 7.0 mi SSE 9.2 mph - N/A   Scattered Clouds
9:15 AM 87.8 °F 91.4 °F 68.0 °F 52% 29.90 in 7.0 mi SSE 11.5 mph - N/A   Scattered Clouds
9:35 AM 89.2 °F 92.8 °F 67.8 °F 49% 29.90 in 7.0 mi South 11.5 mph - N/A   Scattered Clouds
9:55 AM 89.6 °F 93.0 °F 67.5 °F 48% 29.90 in 5.0 mi South 10.4 mph - N/A   Haze
10:15 AM 89.1 °F 92.1 °F 67.3 °F 48% 29.90 in 7.0 mi SSW 6.9 mph - N/A   Mostly Cloudy
10:35 AM 92.5 °F 95.9 °F 67.3 °F 43% 29.90 in 7.0 mi South 10.4 mph - N/A   Scattered Clouds
10:55 AM 93.7 °F 97.2 °F 66.7 °F 41% 29.90 in 7.0 mi SSE 11.5 mph - N/A   Clear
11:15 AM 95.0 °F 97.9 °F 65.8 °F 38% 29.91 in 7.0 mi SSW 9.2 mph - N/A   Scattered Clouds
11:35 AM 95.5 °F 98.4 °F 65.3 °F 37% 29.90 in 7.0 mi SW 9.2 mph - N/A   Scattered Clouds
11:55 AM 97.7 °F 100.6 °F 64.6 °F 34% 29.90 in 10.0 mi South 10.4 mph - N/A   Scattered Clouds
12:15 PM 98.2 °F 101.0 °F 64.4 °F 33% 29.90 in 7.0 mi South 11.5 mph 16.1 mph N/A   Scattered Clouds
12:35 PM 99.5 °F 102.0 °F 64.0 °F 31% 29.89 in 7.0 mi South 9.2 mph 18.4 mph N/A   Scattered Clouds
12:55 PM 100.6 °F 103.3 °F 64.2 °F 30% 29.88 in 10.0 mi South 10.4 mph 16.1 mph N/A   Clear
1:15 PM 101.7 °F 103.9 °F 63.3 °F 28% 29.87 in 10.0 mi South 8.1 mph 17.3 mph N/A   Clear
1:35 PM 102.4 °F 104.5 °F 62.6 °F 27% 29.86 in 10.0 mi SE 9.2 mph 17.3 mph N/A   Clear
1:55 PM 103.1 °F 105.8 °F 62.8 °F 27% 29.85 in 7.0 mi SSE 9.2 mph 17.3 mph N/A   Clear
2:15 PM 103.8 °F 105.7 °F 61.5 °F 25% 29.85 in 10.0 mi SSE 6.9 mph 16.1 mph N/A   Clear
2:35 PM 104.7 °F 106.5 °F 61.7 °F 24% 29.85 in 10.0 mi South 9.2 mph - N/A   Clear
2:55 PM 104.9 °F 107.5 °F 62.6 °F 25% 29.84 in 10.0 mi SSE 10.4 mph 16.1 mph N/A   Clear
3:15 PM 104.9 °F 107.5 °F 62.6 °F 25% 29.83 in 7.0 mi ESE 8.1 mph 17.3 mph N/A   Clear
3:35 PM 104.7 °F 107.9 °F 63.0 °F 26% 29.82 in 10.0 mi ESE 9.2 mph 20.7 mph N/A   Clear
3:55 PM 105.3 °F 108.1 °F 62.4 °F 25% 29.82 in 10.0 mi SSE 8.1 mph 20.7 mph N/A   Clear
4:15 PM 105.4 °F 107.7 °F 61.3 °F 24% 29.82 in 7.0 mi ESE 12.7 mph 21.9 mph N/A   Clear
4:35 PM 105.6 °F 108.0 °F 61.9 °F 24% 29.81 in 10.0 mi SE 10.4 mph 18.4 mph N/A   Clear
4:55 PM 105.6 °F 107.2 °F 61.2 °F 23% 29.80 in 10.0 mi SE 12.7 mph 20.7 mph N/A   Clear
5:15 PM 105.3 °F 107.4 °F 61.2 °F 24% 29.80 in 10.0 mi SSE 13.8 mph 18.4 mph N/A   Clear
5:35 PM 105.3 °F 106.7 °F 60.8 °F 23% 29.80 in 10.0 mi ESE 10.4 mph 18.4 mph N/A   Clear
5:55 PM 104.9 °F 105.4 °F 59.4 °F 22% 29.79 in 10.0 mi SE 13.8 mph - N/A   Clear
6:15 PM 104.4 °F 105.2 °F 59.9 °F 23% 29.79 in 10.0 mi SE 8.1 mph 17.3 mph N/A   Clear
6:35 PM 104.0 °F 104.6 °F 59.2 °F 23% 29.78 in 10.0 mi SE 9.2 mph 17.3 mph N/A   Clear
6:55 PM 103.5 °F 103.8 °F 58.8 °F 23% 29.77 in 10.0 mi SE 11.5 mph 19.6 mph N/A   Clear
7:15 PM 102.6 °F 103.6 °F 60.3 °F 25% 29.77 in 10.0 mi SE 10.4 mph - N/A   Clear
7:35 PM 101.8 °F 102.4 °F 60.1 °F 25% 29.77 in 10.0 mi SE 12.7 mph 17.3 mph N/A   Clear
7:55 PM 100.4 °F 101.8 °F 61.9 °F 28% 29.78 in 10.0 mi SE 13.8 mph 17.3 mph N/A   Clear
8:15 PM 99.1 °F 99.8 °F 60.8 °F 28% 29.78 in 10.0 mi SE 10.4 mph - N/A   Clear
8:35 PM 97.9 °F 98.3 °F 60.8 °F 29% 29.79 in 10.0 mi SE 8.1 mph - N/A   Clear
8:55 PM 96.8 °F 98.0 °F 62.2 °F 32% 29.80 in 10.0 mi SE 11.5 mph - N/A   Clear
9:15 PM 96.1 °F 96.4 °F 61.3 °F 31% 29.80 in 10.0 mi SE 11.5 mph - N/A   Clear
9:35 PM 95.2 °F 95.1 °F 60.4 °F 31% 29.82 in 10.0 mi SE 10.4 mph 17.3 mph N/A   Clear
9:55 PM 94.6 °F 94.3 °F 59.9 °F 31% 29.82 in 10.0 mi SSE 9.2 mph - N/A   Clear
10:15 PM 94.1 °F 93.5 °F 59.0 °F 31% 29.84 in 10.0 mi SSE 10.4 mph - N/A   Clear
10:35 PM 93.6 °F 93.1 °F 59.4 °F 32% 29.84 in 10.0 mi SSE 8.1 mph - N/A   Clear
10:55 PM 93.4 °F 92.8 °F 59.2 °F 32% 29.85 in 10.0 mi SE 8.1 mph - N/A   Clear
11:15 PM 93.2 °F 92.6 °F 59.2 °F 32% 29.85 in 10.0 mi SE 8.1 mph - N/A   Clear
11:35 PM 90.9 °F 90.3 °F 59.9 °F 35% 29.85 in 10.0 mi SSE 3.5 mph - N/A   Clear
11:55 PM 91.4 °F 90.7 °F 59.4 °F 34% 29.85 in 10.0 mi SSE 5.8 mph - N/A   Clear